Location: Saint-Denis
(20.8800°S, 55.4481°E)
Time: 11:58:49
(UTC+04:00)

FENGYUN 1C DEB - Pass Details

Date: 27 February 2024
Orbit: 798 x 864 km, 98.6° (Epoch: 24 April)

Event Time Altitude Azimuth Distance (km) Brightness Sun altitude
Rises 20:58:36 0° 199° (SSW) 3,427 ? -30.2°
Reaches altitude 10° 21:02:54 10° 231° (SW) 2,465 ? -31.1°
Maximum altitude 21:04:30 11° 248° (WSW) 2,364 ? -31.5°
Drops below altitude 10° 21:06:10 10° 266° (W) 2,454 ? -31.8°
Sets 21:10:19 0° 298° (WNW) 3,350 ? -32.7°
